This is the latest recevied weather packets stored in our database for station/object WA7CUG. If no packets are shown the sender has not sent any weather packets the latest 10 day(s).
| Time | Temp. | Humidity | Pressure | Rain* | Wind** | Luminosity | Snow |
|---|---|---|---|---|---|---|---|
| 1777841524 | 28.33° C | 27% | 1012.7 hPa | 0 mm | - | 684 W/m² | - |
| 1777841221 | 28.33° C | 23% | 1013 hPa | 0 mm | - | 686 W/m² | - |
| 1777840919 | 27.78° C | 28% | 1012.8 hPa | 0 mm | - | 689 W/m² | - |
| 1777840615 | 27.78° C | 29% | 1013.2 hPa | 0 mm | - | 692 W/m² | - |
| 1777840314 | 27.78° C | 30% | 1013.1 hPa | 0 mm | - | 688 W/m² | - |
| 1777840010 | 27.22° C | 29% | 1013.1 hPa | 0 mm | - | 693 W/m² | - |
| 1777839708 | 27.22° C | 32% | 1013.1 hPa | 0 mm | - | 694 W/m² | - |
| 1777839406 | 26.67° C | 30% | 1013.2 hPa | 0 mm | - | 693 W/m² | - |
| 1777839103 | 26.67° C | 30% | 1013.4 hPa | 0 mm | - | 683 W/m² | - |
| 1777838799 | 26.67° C | 30% | 1013.4 hPa | 0 mm | - | 699 W/m² | - |
| 1777838496 | 26.67° C | 31% | 1013.4 hPa | 0 mm | - | 699 W/m² | - |
| 1777838193 | 26.67° C | 33% | 1013.9 hPa | 0 mm | - | 693 W/m² | - |
| 1777837890 | 26.11° C | 28% | 1013.8 hPa | 0 mm | - | 695 W/m² | - |
| 1777837587 | 26.11° C | 30% | 1013.7 hPa | 0 mm | - | 680 W/m² | - |
| 1777837282 | 25.56° C | 32% | 1013.9 hPa | 0 mm | - | 682 W/m² | - |
| 1777836979 | 25.56° C | 33% | 1014 hPa | 0 mm | - | 684 W/m² | - |
| 1777836675 | 25° C | 32% | 1013.9 hPa | 0 mm | - | 679 W/m² | - |
| 1777836371 | 25° C | 31% | 1014.4 hPa | 0 mm | - | 678 W/m² | - |
| 1777836067 | 25° C | 33% | 1014.4 hPa | 0 mm | - | 675 W/m² | - |
| 1777835764 | 25° C | 36% | 1014.5 hPa | 0 mm | - | 673 W/m² | - |
| 1777835460 | 24.44° C | 35% | 1014.5 hPa | 0 mm | - | 668 W/m² | - |
| 1777835157 | 23.89° C | 37% | 1014.6 hPa | 0 mm | - | 662 W/m² | - |
| 1777834855 | 23.89° C | 37% | 1014.7 hPa | 0 mm | - | 656 W/m² | - |
| 1777834551 | 23.89° C | 39% | 1014.7 hPa | 0 mm | - | 651 W/m² | - |
| 1777834250 | 23.89° C | 38% | 1014.8 hPa | 0 mm | - | 644 W/m² | - |
* Rain latest hour (hover to see other rain measurements)
** Current wind speed in m/s (hover to see current wind gust speed)